www.pogodaiklimat.ru

Погода и климат >> Архив погоды >> Иран >> Birjand


ПОГОДА в Birjand

  • Прогноз погоды в Birjand
  • Монитор погоды в Birjand
  • Климат города

АРХИВ ПОГОДЫ в Birjand

Время (UTC), дата Ветер
(напр.,м/с)
 
Видим.   Явления Облачность Т
(С)
Тd
(С)
f
(%)
Тe
(С)
Тes
(С)
Комфортность P
(гПа)
Po
(гПа)
Тmin
(С)
Tmax
(С)
R
(мм)
R24
(мм)
S
(см)
00 12.12 ЮВ 3 10 км ясно -7.2 -19.5 37 -12 -12 1022.0 850.8
03 12.12 ЮВ 4 10 км 1/0
[Ci sp]
-8.1 -19.2 40 -14 -14 1025.1 851.8 -8.8
06 12.12 В 3 12 км 1/0
[Ci fib]
+4.2 -14.6 24 +2 +5 1026.2 853.4
09 12.12 З 3 12 км 1/0
[Ci sp]
+9.0 -12.8 20 +7 +13 1023.4 851.8
12 12.12 С 6 15 км 3/0
[Ci fib]
+9.2 -14.2 18 +6 +7 1023.9 852.0
15 12.12 СВ 2 10 км ясно +3.1 -15.5 24 +1 +1 1028.2 853.6 +10.9
18 12.12 В 2 10 км ясно -0.7 -16.0 30 -3 -3 1026.6 854.7
21 12.12 В 2 10 км ясно -5.7 -17.2 40 -9 -9 1025.8 853.9
00 13.12 ЮВ 4 10 км ясно -8.6 -18.7 44 -15 -15 1026.3 853.6
03 13.12 ЮВ 3 10 км ясно -9.5 -18.3 49 -15 -15 1028.8 853.7 -9.8
06 13.12 штиль 0 15 км 1/0
[Ac trans Ci fib]
+3.6 -13.0 28 +4 +9 1026.6 854.6
09 13.12 СЗ 4 15 км 3/1 600 м
[Cu hum Ac trans Ci sp]
+7.8 -11.5 24 +5 +9 1024.2 852.3
12 13.12 СЗ 6 15 км 4/1 900 м
[Sc Ci sp]
+7.9 -13.1 21 +5 +5 1023.6 851.0
15 13.12 СЗ 3 12 км 6/3 900 м
[Sc Ci sp]
+4.7 -11.8 29 +2 +2 1025.6 851.5 +8.8
18 13.12 С 3 10 км 9/4 900 м
[Sc diur, vesp Ac As Cs]
+4.4 -8.6 38 +2 +2 1021.7 851.9
21 13.12 штиль 0 10 км 9/4 900 м
[Sc diur, vesp Ac As Ci sp]
+2.9 -6.4 50 +3 +3 1020.3 851.6
00 14.12 штиль 0 10 км 8/4 1050 м
[Sc diur, vesp Ac As Ci sp]
+1.4 -7.8 50 +1 +1 1020.7 851.5
03 14.12 ЮВ 3 10 км 5/1 1050 м
[Sc diur, vesp Ac trans]
-2.8 -9.6 59 -7 -7 1024.4 852.5 -3.2
06 14.12 ЮВ 3 12 км 1/0
[Ac trans]
+4.0 -7.0 45 +1 +5 1023.7 853.7
09 14.12 СЗ 5 12 км 3/1 1000 м
[Cu hum Cc]
+8.3 -9.1 28 +6 +8 1020.6 851.9
12 14.12 З 7 12 км 5/1 1200 м
[Sc diur, vesp Ac lent Cs]
+9.2 -8.4 28 +6 +6 1019.9 851.1
15 14.12 С 3 12 км 6/1 1200 м
[Sc diur, vesp Ac As]
+6.1 -8.5 34 +4 +4 1023.2 851.9 +9.9
18 14.12 В 2 10 км 5/0
[Ac As Ci fib]
+3.5 -10.0 36 +2 +2 1021.8 851.9
21 14.12 В 2 10 км 8/0
[Ac As Ci fib]
+4.0 -9.4 37 +2 +2 1019.6 851.3
00 15.12 В 5 10 км 8/0
[Ac As Ci fib]
+2.9 -8.4 43 -2 -2 1018.9 850.7
03 15.12 В 5 10 км 4/0
[Ac trans]
0.0 -9.8 48 -5 -5 1021.9 851.5 -0.7
06 15.12 ЮВ 6 12 км 1/0
[Ac trans]
+7.3 -8.1 33 +4 +5 1021.3 852.3
09 15.12 СЗ 3 15 км 1/1 1000 м
[Sc Ac trans]
+12.7 -10.1 19 +12 +17 1018.1 851.2
12 15.12 З 5 15 км 3/1 1000 м
[Sc Ac As Ci sp]
+12.7 -13.2 15 +11 +11 1017.8 850.7
15 15.12 ЮВ 2 10 км 3/0
[Ac As Ci sp]
+8.6 -13.9 19 +8 +8 1022.7 852.9 +14.4
18 15.12 В 6 10 км ясно +3.0 -12.1 32 -2 -2 1023.0 853.6
21 15.12 В 7 10 км ясно +2.6 -11.9 33 -3 -3 1021.6 853.1
00 16.12 В 6 10 км ясно +1.4 -13.0 33 -4 -4 1021.0 853.0
03 16.12 В 6 10 км 1/0
[Ac trans]
+0.9 -13.5 33 -4 -4 1023.9 854.1 -0.1
06 16.12 В 3 10 км 3/1 1000 м
[Sc diur, vesp Cc]
+8.5 -12.0 22 +7 +10 1025.0 855.6
09 16.12 З 3 10 км 1/1 1000 м
[Sc diur, vesp Cc]
+13.1 -9.1 20 +12 +17 1021.7 854.0
12 16.12 СЗ 6 10 км 3/1 1050 м
[Sc diur, vesp Ci fib]
+13.7 -7.2 23 +12 +12 1021.1 853.4
15 16.12 штиль 0 10 км 3/0
[Ci fib]
+7.2 -7.4 35 +7 +7 1025.0 854.8 +14.3
18 16.12 ЮВ 3 10 км 3/0
[Ci fib]
+3.3 -10.0 37 0 0 1025.0 855.7
21 16.12 В 2 10 км 3/0
[Ci sp]
+1.0 -9.8 44 -2 -2 1024.4 855.8
00 17.12 ЮВ 4 10 км 1/0
[Ac trans Ci fib]
-0.6 -10.0 49 -5 -5 1024.3 855.5
03 17.12 В 3 10 км 5/1 1000 м
[Sc Ac trans Ci fib]
+1.3 -7.6 51 -2 -2 1026.4 856.0 -1.7
06 17.12 В 2 10 км 8/1 1050 м
[Sc diur, vesp Ac trans Ci sp]
+9.5 -6.1 33 +9 +11 1025.9 856.8
09 17.12 З 4 10 км 3/3 1050 м
[Sc diur, vesp]
+14.6 -5.7 24 +14 +17 1022.4 854.7
12 17.12 З 5 10 км 4/4 1050 м
[Sc]
+14.2 -5.0 26 +13 +13 1022.1 853.9
15 17.12 СЗ 2 10 км 1/1 1000 м
[Sc diur, vesp Ac trans]
+8.1 -6.8 34 +7 +7 1024.7 854.8 +15.5
18 17.12 В 4 10 км ясно +4.7 -7.2 42 +1 +1 1024.1 855.7
21 17.12 В 2 10 км ясно +2.0 -8.0 47 -1 -1 1023.5 855.5
00 18.12 В 3 10 км ясно 0.0 -8.5 53 -4 -4 1024.0 855.5
03 18.12 В 2 10 км 1/0
[Ci sp]
-0.2 -7.6 57 -3 -3 1026.9 856.2 -1.3
06 18.12 штиль 0 10 км ясно +10.0 -5.2 34 +10 +16 1025.4 856.9
09 18.12 З 3 10 км 6/3 1200 м
[Cu hum Ci sp]
+15.4 -4.0 26 +15 +18 1022.3 855.1
12 18.12 З 4 10 км 3/1 1200 м
[Sc Ci sp]
+15.3 -5.1 24 +15 +15 1021.6 853.9
15 18.12 штиль 0 10 км ясно +10.0 -6.8 30 +10 +10 1024.3 854.6 +16.3
18 18.12 ЮВ 2 10 км 1/0
[Ac trans]
+4.3 -9.8 35 +2 +2 1024.3 855.8
21 18.12 ЮВ 3 10 км 1/0
[Ac trans]
+1.6 -11.0 39 -2 -2 1023.5 855.8

 

Местоположение метеостанции Birjand (Иран): широта 32.87 долгота 59.20 высота над уровнем моря 1491 м.

В архиве по умолчанию представлена погода в Birjand за последнюю неделю. Архивные данные за месяц целиком и за предыдущие месяцы, начиная с января 2011 года, Вы можете получить, выбрав интересующий диапазон дат из раскрывающегося списка и нажав кнопку "Ввод!".

Внимание! Время в таблицах - всемирное. Для получения местного времени необходимо прибавить поправку, которая в Birjand равна 3.5 ч.

Смотрите также архив погоды в соседних городах и на ближайших метеорологических станциях:

Погода в Ferdous (Иран) (160 км)
Погода в Nehbandan (Иран) (168 км)
Погода в Tabas (Иран) (227 км)
Погода в Torbat-Heydarieh (Иран) (267 км)
Погода в Kashmar (Иран) (268 км)
Погода в Zabol (Иран) (295 км)
Погода в Herat (Афганистан) (318 км)
Погода в Kerman (Иран) (360 км)
Погода в Mashhad (Иран) (380 км)
Погода в Серхетабаде (Марыйский велаят, Туркменистан) (395 км)

Пояснения к столбцам:

Ветер - указаны скорость ветра в м/с - средняя за 10 мин, порывы в срок и между сроками (в фигурных скобках) и направление, откуда дует ветер: С - северный, СВ - северо-восточный, В - восточный, ЮВ - юго-восточный, Ю - южный, ЮЗ - юго-западный, З - западный, СЗ - северо-западный.
Видимость - горизонтальная дальность видимости в метрах или километрах. При видимости от 1 до 10 км при отсутствии осадков обычно наблюдается дымка, при ухудшении видимости до 1 км и менее - туман. В сухую погоду видимость может ухудшаться дымом, пылью или мглою.
Явления - указаны атмосферные явления, наблюдавшиеся в срок или в последний час перед сроком; фигурными скобками обозначены явления, наблюдавшиеся между сроками (за 1-3 часа до срока); квадратными скобками обозначены град или гололедные отложения с указанием их диаметра в мм.
Облачность - указаны через наклонную черту общая и нижняя облачность в баллах и высота нижней границы облаков в метрах; квадратными скобками обозначены формы облаков: Ci - перистые, Cs - перисто-слоистые, Cc - перисто-кучевые, Ac - высококучевые, As - высокослоистые, Sc - слоисто-кучевые, Ns - слоисто-дождевые, Cu - кучевые, Cb - кучево-дождевые. Подробнее классификацию облаков см. в Атласе облаков (PDF).
T - Температура воздуха - температура, измеренная на высоте 2 м над землей.
Td - Температура точки росы - температура, при понижении до которой содержащийся в воздухе водяной пар достигнет насыщения.
f - Относительная влажность воздуха - влажноcть воздуха, измеренная на высоте 2 м над землей.
Te - Эффективная температура - температура, которую ощущает одетый по сезону человек в тени. Характеристика душности погоды. При расчете учитывается влияние влажности воздуха и скорости ветра на теплоощущения человека.
Tes - Эффективная температура на солнце - температура, которую ощущает человек, с поправкой на солнечный нагрев. Характеристика знойности погоды. Зависит от высоты солнца над горизонтом, облачности и скорости ветра. Ночью, в пасмурную погоду, а также при ветре 12 м/с и более поправка равна нулю.
P - Атмосферное давление - приведенное к уровню моря атмосферное давление.
Po - Атмосферное давление - измеренное на уровне метеостанции атмосферное давление.
Tmin - Минимальная температура - минимум температуры воздуха на высоте 2 м над землей.
Tmax - Максимальная температура - максимум температуры воздуха на высоте 2 м над землей.
R - Количество осадков - Количество выпавших осадков за период времени, мм. При наведении курсора мыши на число - период времени, за который выпало указанное количество осадков.
R24 - Количество осадков - Количество выпавших осадков за 24 часа, мм.
S - Снежный покров - Высота снежного покрова, см. При наведении курсора мыши на число - состояние снежного покрова и степень покрытия местности в баллах.